Time,TemperatureF,DewpointF,PressureIn,WindDirection,WindDirectionDegrees,WindSpeedMPH,WindSpeedGustMPH,Humidity,HourlyPrecipIn,Conditions,Clouds,dailyrainin,SoftwareType,DateUTC
2013-12-24 00:07:00,27.7,26.0,30.18,West,276,0.0,-999.0,93,-99.99,,,0.01,weatherlink.com 1.10,2013-12-24 05:07:00,
2013-12-24 00:22:00,27.6,25.0,30.18,South,174,0.0,-999.0,91,-99.99,,,0.01,weatherlink.com 1.10,2013-12-24 05:22:00,
2013-12-24 00:37:00,27.9,25.0,30.18,NNW,334,0.0,-999.0,88,-99.99,,,0.01,weatherlink.com 1.10,2013-12-24 05:37:00,
2013-12-24 00:52:00,28.2,24.0,30.18,West,261,0.0,-999.0,83,-99.99,,,0.00,weatherlink.com 1.10,2013-12-24 05:52:00,
2013-12-24 01:07:00,27.9,23.0,30.18,West,259,0.0,-999.0,81,-99.99,,,0.00,weatherlink.com 1.10,2013-12-24 06:07:00,
2013-12-24 01:22:00,27.8,22.0,30.18,West,275,0.0,-999.0,80,-99.99,,,0.00,weatherlink.com 1.10,2013-12-24 06:22:00,
2013-12-24 01:37:00,27.7,22.0,30.19,West,279,0.0,-999.0,79,-99.99,,,0.00,weatherlink.com 1.10,2013-12-24 06:37:00,
2013-12-24 01:52:00,27.2,22.0,30.19,West,262,0.0,-999.0,79,-99.99,,,0.00,weatherlink.com 1.10,2013-12-24 06:52:00,
2013-12-24 02:07:00,26.9,22.0,30.19,West,266,0.0,-999.0,80,-99.99,,,0.00,weatherlink.com 1.10,2013-12-24 07:07:00,
2013-12-24 02:22:00,26.4,21.0,30.21,WSW,245,0.0,-999.0,80,-99.99,,,0.00,weatherlink.com 1.10,2013-12-24 07:22:00,
2013-12-24 02:37:00,25.9,21.0,30.21,WSW,245,0.0,-999.0,81,-99.99,,,0.00,weatherlink.com 1.10,2013-12-24 07:37:00,
2013-12-24 02:52:00,25.2,21.0,30.21,WSW,254,0.0,-999.0,84,-99.99,,,0.00,weatherlink.com 1.10,2013-12-24 07:52:00,
2013-12-24 03:07:00,24.6,20.0,30.21,SW,236,0.0,-999.0,84,-99.99,,,0.00,weatherlink.com 1.10,2013-12-24 08:07:00,
2013-12-24 03:22:00,24.2,20.0,30.21,WSW,243,0.0,-999.0,83,-99.99,,,0.00,weatherlink.com 1.10,2013-12-24 08:22:00,
2013-12-24 03:37:00,24.1,20.0,30.22,SW,232,0.0,-999.0,83,-99.99,,,0.00,weatherlink.com 1.10,2013-12-24 08:37:00,
2013-12-24 03:52:00,24.1,19.0,30.21,WSW,248,0.0,-999.0,82,-99.99,,,0.00,weatherlink.com 1.10,2013-12-24 08:52:00,
2013-12-24 04:07:00,23.8,19.0,30.21,WSW,255,0.0,-999.0,81,-99.99,,,0.00,weatherlink.com 1.10,2013-12-24 09:07:00,
2013-12-24 04:22:00,23.4,19.0,30.21,WSW,255,0.0,-999.0,82,-99.99,,,0.00,weatherlink.com 1.10,2013-12-24 09:22:00,
2013-12-24 04:37:00,22.6,18.0,30.21,WSW,250,0.0,-999.0,83,-99.99,,,0.00,weatherlink.com 1.10,2013-12-24 09:37:00,
2013-12-24 04:52:00,21.5,18.0,30.21,WSW,248,0.0,-999.0,85,-99.99,,,0.00,weatherlink.com 1.10,2013-12-24 09:52:00,
2013-12-24 05:07:00,21.5,18.0,30.21,WSW,248,0.0,-999.0,87,-99.99,,,0.00,weatherlink.com 1.10,2013-12-24 10:07:00,
2013-12-24 05:22:00,22.1,18.0,30.21,WSW,250,0.0,-999.0,85,-99.99,,,0.00,weatherlink.com 1.10,2013-12-24 10:22:00,
2013-12-24 05:37:00,22.0,18.0,30.21,WSW,252,0.0,-999.0,85,-99.99,,,0.00,weatherlink.com 1.10,2013-12-24 10:37:00,
2013-12-24 05:52:00,20.9,17.0,30.21,WSW,252,0.0,-999.0,86,-99.99,,,0.00,weatherlink.com 1.10,2013-12-24 10:52:00,
2013-12-24 06:08:00,20.7,18.0,30.22,WSW,252,0.0,-999.0,88,-99.99,,,0.00,weatherlink.com 1.10,2013-12-24 11:08:00,
2013-12-24 06:22:00,19.6,17.0,30.22,WSW,252,0.0,-999.0,88,-99.99,,,0.00,weatherlink.com 1.10,2013-12-24 11:22:00,
2013-12-24 06:37:00,19.5,17.0,30.21,WSW,252,0.0,-999.0,89,-99.99,,,0.00,weatherlink.com 1.10,2013-12-24 11:37:00,
2013-12-24 06:53:00,18.6,16.0,30.21,WSW,252,0.0,-999.0,90,-99.99,,,0.00,weatherlink.com 1.10,2013-12-24 11:53:00,
2013-12-24 07:08:00,19.7,18.0,30.21,WSW,252,0.0,-999.0,91,-99.99,,,0.00,weatherlink.com 1.10,2013-12-24 12:08:00,
2013-12-24 07:23:00,19.1,17.0,30.21,WSW,252,0.0,-999.0,91,-99.99,,,0.00,weatherlink.com 1.10,2013-12-24 12:23:00,
2013-12-24 07:38:00,18.3,16.0,30.20,WSW,252,0.0,-999.0,91,-99.99,,,0.00,weatherlink.com 1.10,2013-12-24 12:38:00,
2013-12-24 07:53:00,19.1,17.0,30.19,WSW,252,0.0,-999.0,92,-99.99,,,0.00,weatherlink.com 1.10,2013-12-24 12:53:00,
2013-12-24 08:08:00,18.7,16.0,30.20,WSW,250,0.0,-999.0,90,-99.99,,,0.00,weatherlink.com 1.10,2013-12-24 13:08:00,
2013-12-24 08:23:00,18.8,17.0,30.20,WSW,250,0.0,-999.0,91,-99.99,,,0.00,weatherlink.com 1.10,2013-12-24 13:23:00,
2013-12-24 08:38:00,20.3,18.0,30.20,WNW,282,0.0,-999.0,92,-99.99,,,0.00,weatherlink.com 1.10,2013-12-24 13:38:00,
2013-12-24 08:53:00,20.7,18.0,30.21,WNW,302,0.0,-999.0,89,-99.99,,,0.00,weatherlink.com 1.10,2013-12-24 13:53:00,
2013-12-24 09:08:00,20.9,18.0,30.21,WNW,285,0.0,-999.0,89,-99.99,,,0.00,weatherlink.com 1.10,2013-12-24 14:08:00,
2013-12-24 09:23:00,21.2,18.0,30.22,NNW,327,0.0,-999.0,88,-99.99,,,0.00,weatherlink.com 1.10,2013-12-24 14:23:00,
2013-12-24 09:38:00,21.5,18.0,30.23,NW,321,0.0,-999.0,87,-99.99,,,0.00,weatherlink.com 1.10,2013-12-24 14:38:00,
2013-12-24 09:53:00,22.1,19.0,30.23,NNW,345,0.0,-999.0,86,-99.99,,,0.00,weatherlink.com 1.10,2013-12-24 14:53:00,
2013-12-24 10:08:00,22.4,18.0,30.23,NW,321,0.0,-999.0,84,-99.99,,,0.00,weatherlink.com 1.10,2013-12-24 15:08:00,
2013-12-24 10:23:00,22.7,19.0,30.23,NW,320,0.0,-999.0,84,-99.99,,,0.00,weatherlink.com 1.10,2013-12-24 15:23:00,
2013-12-24 10:38:00,21.9,18.0,30.21,NNW,335,0.0,-999.0,84,-99.99,,,0.00,weatherlink.com 1.10,2013-12-24 15:38:00,
2013-12-24 10:53:00,22.2,18.0,30.20,NW,313,0.0,-999.0,85,-99.99,,,0.00,weatherlink.com 1.10,2013-12-24 15:53:00,
2013-12-24 11:08:00,22.0,18.0,30.20,NNW,331,0.0,-999.0,85,-99.99,,,0.00,weatherlink.com 1.10,2013-12-24 16:08:00,
2013-12-24 11:23:00,22.2,19.0,30.19,WNW,302,0.0,-999.0,86,-99.99,,,0.00,weatherlink.com 1.10,2013-12-24 16:23:00,
2013-12-24 11:38:00,22.2,18.0,30.18,NW,316,0.0,-999.0,85,-99.99,,,0.00,weatherlink.com 1.10,2013-12-24 16:38:00,
2013-12-24 11:53:00,22.0,19.0,30.18,NNW,328,0.0,-999.0,86,-99.99,,,0.00,weatherlink.com 1.10,2013-12-24 16:53:00,
2013-12-24 12:08:00,21.8,18.0,30.17,NNW,334,0.0,-999.0,86,-99.99,,,0.00,weatherlink.com 1.10,2013-12-24 17:08:00,
2013-12-24 12:23:00,21.7,18.0,30.17,North,349,0.0,-999.0,86,-99.99,,,0.00,weatherlink.com 1.10,2013-12-24 17:23:00,
2013-12-24 12:38:00,21.9,19.0,30.17,NW,316,0.0,-999.0,87,-99.99,,,0.00,weatherlink.com 1.10,2013-12-24 17:38:00,
2013-12-24 12:53:00,21.7,18.0,30.16,NNW,341,0.0,-999.0,87,-99.99,,,0.00,weatherlink.com 1.10,2013-12-24 17:53:00,
2013-12-24 13:08:00,21.6,18.0,30.17,NNW,332,0.0,-999.0,86,-99.99,,,0.00,weatherlink.com 1.10,2013-12-24 18:08:00,
2013-12-24 13:23:00,21.6,18.0,30.17,NNW,338,0.0,-999.0,86,-99.99,,,0.00,weatherlink.com 1.10,2013-12-24 18:23:00,
2013-12-24 13:38:00,21.3,18.0,30.17,NNW,333,0.0,-999.0,86,-99.99,,,0.00,weatherlink.com 1.10,2013-12-24 18:38:00,
2013-12-24 13:53:00,21.4,18.0,30.16,NNW,340,0.0,-999.0,87,-99.99,,,0.00,weatherlink.com 1.10,2013-12-24 18:53:00,
2013-12-24 14:08:00,21.3,18.0,30.16,North,352,0.0,-999.0,87,-99.99,,,0.00,weatherlink.com 1.10,2013-12-24 19:08:00,
2013-12-24 14:23:00,21.3,18.0,30.16,North,4,0.0,-999.0,87,-99.99,,,0.00,weatherlink.com 1.10,2013-12-24 19:23:00,
2013-12-24 14:38:00,20.9,17.0,30.16,North,352,0.0,-999.0,86,-99.99,,,0.00,weatherlink.com 1.10,2013-12-24 19:38:00,
2013-12-24 14:53:00,20.6,17.0,30.17,North,355,0.0,-999.0,87,-99.99,,,0.00,weatherlink.com 1.10,2013-12-24 19:53:00,
2013-12-24 15:08:00,20.5,18.0,30.17,NW,313,0.0,-999.0,88,-99.99,,,0.00,weatherlink.com 1.10,2013-12-24 20:08:00,
2013-12-24 15:23:00,20.4,17.0,30.17,North,0,0.0,-999.0,87,-99.99,,,0.00,weatherlink.com 1.10,2013-12-24 20:23:00,
2013-12-24 15:38:00,20.2,17.0,30.18,North,354,0.0,-999.0,88,-99.99,,,0.00,weatherlink.com 1.10,2013-12-24 20:38:00,
2013-12-24 15:53:00,20.0,17.0,30.19,NNE,15,0.0,-999.0,88,-99.99,,,0.00,weatherlink.com 1.10,2013-12-24 20:53:00,
2013-12-24 16:08:00,19.6,17.0,30.19,North,349,0.0,-999.0,88,-99.99,,,0.00,weatherlink.com 1.10,2013-12-24 21:08:00,
2013-12-24 16:23:00,19.3,16.0,30.20,NNW,329,0.0,-999.0,88,-99.99,,,0.00,weatherlink.com 1.10,2013-12-24 21:23:00,
2013-12-24 16:38:00,18.9,16.0,30.21,North,358,0.0,-999.0,89,-99.99,,,0.00,weatherlink.com 1.10,2013-12-24 21:38:00,
2013-12-24 16:53:00,18.8,16.0,30.21,North,359,0.0,-999.0,89,-99.99,,,0.00,weatherlink.com 1.10,2013-12-24 21:53:00,
2013-12-24 17:08:00,18.6,16.0,30.21,North,359,0.0,-999.0,89,-99.99,,,0.00,weatherlink.com 1.10,2013-12-24 22:08:00,
2013-12-24 17:23:00,18.5,16.0,30.22,North,359,0.0,-999.0,89,-99.99,,,0.00,weatherlink.com 1.10,2013-12-24 22:23:00,
2013-12-24 17:38:00,18.1,15.0,30.22,North,0,6.0,-999.0,89,-99.99,,,0.00,weatherlink.com 1.10,2013-12-24 22:38:00,
2013-12-24 17:53:00,17.8,15.0,30.23,NNE,15,3.0,-999.0,89,-99.99,,,0.00,weatherlink.com 1.10,2013-12-24 22:53:00,
2013-12-24 18:08:00,17.9,15.0,30.23,NNE,25,1.0,-999.0,89,-99.99,,,0.00,weatherlink.com 1.10,2013-12-24 23:08:00,
2013-12-24 18:23:00,17.7,15.0,30.23,North,349,3.0,-999.0,88,-99.99,,,0.00,weatherlink.com 1.10,2013-12-24 23:23:00,
2013-12-24 18:38:00,17.3,14.0,30.24,North,2,9.0,-999.0,88,-99.99,,,0.00,weatherlink.com 1.10,2013-12-24 23:38:00,
2013-12-24 18:53:00,17.1,14.0,30.25,North,1,5.0,-999.0,87,-99.99,,,0.00,weatherlink.com 1.10,2013-12-24 23:53:00,
2013-12-24 19:08:00,16.8,14.0,30.25,North,357,5.0,-999.0,87,-99.99,,,0.00,weatherlink.com 1.10,2013-12-25 00:08:00,
2013-12-24 19:23:00,16.6,13.0,30.26,North,349,4.0,-999.0,87,-99.99,,,0.00,weatherlink.com 1.10,2013-12-25 00:23:00,
2013-12-24 19:38:00,16.2,13.0,30.27,NNW,345,1.0,-999.0,87,-99.99,,,0.00,weatherlink.com 1.10,2013-12-25 00:38:00,
2013-12-24 19:53:00,15.9,13.0,30.27,North,359,6.0,-999.0,87,-99.99,,,0.00,weatherlink.com 1.10,2013-12-25 00:53:00,
2013-12-24 20:08:00,15.5,12.0,30.27,NNW,347,4.0,-999.0,87,-99.99,,,0.00,weatherlink.com 1.10,2013-12-25 01:08:00,
2013-12-24 20:23:00,14.8,11.0,30.28,North,352,3.0,-999.0,86,-99.99,,,0.00,weatherlink.com 1.10,2013-12-25 01:23:00,
2013-12-24 20:38:00,14.5,12.0,30.28,NNW,332,0.0,-999.0,88,-99.99,,,0.00,weatherlink.com 1.10,2013-12-25 01:38:00,
2013-12-24 20:53:00,14.3,11.0,30.29,NNW,328,2.0,-999.0,87,-99.99,,,0.00,weatherlink.com 1.10,2013-12-25 01:53:00,
2013-12-24 21:08:00,14.2,11.0,30.28,NW,323,0.0,-999.0,88,-99.99,,,0.00,weatherlink.com 1.10,2013-12-25 02:08:00,
2013-12-24 21:23:00,14.0,11.0,30.28,NW,321,1.0,-999.0,88,-99.99,,,0.00,weatherlink.com 1.10,2013-12-25 02:23:00,
2013-12-24 21:38:00,13.8,11.0,30.29,NW,311,2.0,-999.0,88,-99.99,,,0.00,weatherlink.com 1.10,2013-12-25 02:38:00,
2013-12-24 21:53:00,13.7,11.0,30.30,NW,312,2.0,-999.0,88,-99.99,,,0.00,weatherlink.com 1.10,2013-12-25 02:53:00,
2013-12-24 22:08:00,13.5,10.0,30.31,NNW,338,7.0,-999.0,87,-99.99,,,0.00,weatherlink.com 1.10,2013-12-25 03:08:00,
2013-12-24 22:23:00,13.2,10.0,30.32,North,1,6.0,-999.0,86,-99.99,,,0.00,weatherlink.com 1.10,2013-12-25 03:23:00,
2013-12-24 22:38:00,12.8,9.0,30.32,North,358,10.0,-999.0,86,-99.99,,,0.00,weatherlink.com 1.10,2013-12-25 03:38:00,
2013-12-24 22:53:00,12.5,9.0,30.32,North,354,9.0,-999.0,86,-99.99,,,0.00,weatherlink.com 1.10,2013-12-25 03:53:00,
2013-12-24 23:09:00,12.1,9.0,30.33,North,6,9.0,-999.0,87,-99.99,,,0.00,weatherlink.com 1.10,2013-12-25 04:09:00,
2013-12-24 23:24:00,11.7,8.0,30.33,North,355,10.0,-999.0,86,-99.99,,,0.00,weatherlink.com 1.10,2013-12-25 04:24:00,
2013-12-24 23:39:00,11.5,8.0,30.34,NNE,25,8.0,-999.0,87,-99.99,,,0.00,weatherlink.com 1.10,2013-12-25 04:39:00,
2013-12-24 23:54:00,11.2,8.0,30.34,North,0,7.0,-999.0,87,-99.99,,,0.00,weatherlink.com 1.10,2013-12-25 04:54:00,